THOR BURNER 2 R/B, 2741

Orbit data source: Space-Track

THOR BURNER 2 R/B, 2741 is space debris in SSO originally from a launch on Wed, 08 Feb 1967 UTC launched from the Air Force Western Test Range (AFWTR). Debris objects in space refer to the collection of defunct objects orbiting the Earth. Examples of debris include non-operational satellites, rocket bodies, and fragments generated from explosions, collisions, or faulty payload assembly.

Loading next visibility...
Identifier
2741, 1967-010B
Orbit
SSO
Last TLE update
8 hours ago
Origin
Manufacturer
Thiokol/TE
Mission
Spacecraft
Bus & Motor
STAR 37, Unknown motor
Mass
136 kg wet, 136 kg dry
Launch date (UTC)
1967-02-08 (58 years ago)
Launch vehicle
Unknown
Launch site
Air Force Western Test Range (AFWTR)
Object type
Payload
Rocket body
Debris
Shape & HBR
Sphere + Cone + 1 Truss, 1.7 m
Radar Cross Section
2.270 m², Large (>1 m²)

Expand to show TLE details & history

TLE from 8 hours ago
0 THOR BURNER 2 R/B
1  2741U 67010B   25182.72809085  .00000110  00000-0  61151-4 0  9995
2  2741  98.9310 122.1913 0051838 221.9257 137.7950 14.29036524 35655
Epoch: 2025-07-01T17:28Z
TLE epoch observation values (Epoch: 2025-07-01T17:28:27.049Z)
Latitude
0.00001°
Longitude
-59.94079°
Altitude
825.509 km
Speed
7.426 km/s
True Right ascension
08h 08m 45s
True Declination
0° 00' 00"
Sunlit
Object was in daylight at epoch
Visualization orbit readout
Latitude
9.3211°
Longitude
-61.05066°
Altitude
828.834 km
Speed
7.423 km/s
Apparent Right ascension
05h 37m 21s
Apparent Declination
-19° 42' 07"
Sunlit
Object is in daylight
Visualization observer readout
Local Sidereal Time
13:36:12
Azimuth
272.861° WNW
Elevation
-35.046°
Doppler factor
1
Orbital elements
Apogee altitude
829.279 km
Perigee altitude
754.941 km
Semi-major axis
7,170.247 km
Eccentricity
0.00518
Inclination
98.931°
RAAN
122.1913°
Arg. of periapsis
221.9257°
True anomaly
Unknown
Mean anomaly
137.795°
Eccentric anomaly
Unknown
Mean motion
3.57472 °/min
Orbital period
100.71 mins
BSTAR
0.000061151
Loading maneuver chart data...
Loading SW <> Apogee altitude chart data...
Loading historical data...
Loading historical data...
Loading historical data...
Loading historical data...
Loading historical data...
Loading historical data...
Loading historical data...
Other satellites on launch #10 in the year 1967 (1967-02-08 UTC)

THOR BURNER 2 R/B Visibility forecast

Observer location: undefined°, undefined°

Span
Click to sort rows by Start time (UTC) header in descending order
Start Az.
Max El. time (UTC)
Max El. Az.
Max El.
End time (UTC)
End Az.
4 mins2025-07-02 07:33:13.327Z69.344° E2025-07-02 07:35:13.327Z94.413° ESE13.822°2025-07-02 07:37:13.327Z118.59° SE
8 mins2025-07-02 09:11:13.327Z4.54° NNE2025-07-02 09:15:13.327Z268.379° W41.89°2025-07-02 09:19:13.327Z208.092° SW
6 mins2025-07-02 18:51:13.327Z98.4° ESE2025-07-02 18:53:13.327Z68.61° E22.18°2025-07-02 18:57:13.327Z15.981° NNE
8 mins2025-07-02 20:29:13.327Z196.907° SSW2025-07-02 20:32:13.327Z245.97° WSW34.612°2025-07-02 20:37:13.327Z330.453° NNW
|